Home   Weather   Hückelhoven   Past weeks

Flag for Germany Past Weather in Hückelhoven, North Rhine-Westphalia, Germany — Yesterday and Last 2 Weeks

Now
32 °F

Ice fog.


Feels Like: 29 °F
Forecast: 28 / 40 °F
Wind: 3 mph from Northwest

Location: Monchengladbach Airport

Current Time: Dec 2, 2016 at 9:09:58 pm

Latest Report: Dec 2, 2016 at 8:20 pm


Visibility: 2 mi

Pressure: 30.24 "Hg

Humidity: 100%

Dew Point: 32 °F

Location of HückelhovenLocation

Past Weather in Hückelhoven — Graph

°F

Hückelhoven Temperature Yesterday

Maximum temperature yesterday: 43 °F (at 12:20 pm)
Minimum temperature yesterday: 39 °F (at 7:50 am)
Average temperature yesterday: 42 °F

High & Low Weather Summary for the Past Weeks

 TemperatureHumidityPressure
High57 °F (Nov 20, 12:50 pm)100% (Nov 23, 8:20 am)30.60 "Hg (Nov 23, 8:20 am)
Low19 °F (Nov 29, 7:50 am)52% (Nov 30, 1:20 pm)29.27 "Hg (Nov 20, 11:20 am)
Average44 °F78%30.03 "Hg
* Reported Nov 17 7:20 pm — Dec 2 7:50 pm, Hückelhoven, Weather by CustomWeather, © 2016

Note: Actual official high and low records may vary slightly from our data, if they occured in-between our weather recording intervals... More about our weather records

Advertising

Hückelhoven Weather History for the Previous 24 Hours

Scroll right to see more
 ConditionsComfort  
Time TempWeatherWind HumidityBarometerVisibility
7:50 pm
Fri, Dec 2
36 °FFog.2 mph100%30.24 "Hg2 mi
7:20 pm36 °FFog.1 mph100%30.24 "Hg2 mi
6:50 pm37 °FFog.No wind93%30.24 "Hg3 mi
6:20 pm39 °FClear.3 mph93%30.21 "Hg10 mi
5:50 pm43 °FClear.3 mph93%30.21 "Hg10 mi
5:20 pm43 °FPassing clouds.3 mph87%30.21 "HgN/A
4:50 pm45 °FPassing clouds.3 mph87%30.21 "HgN/A
4:20 pm45 °FPassing clouds.5 mph87%30.21 "HgN/A
3:50 pm45 °FPassing clouds.3 mph87%30.21 "HgN/A
3:20 pm45 °FPassing clouds.3 mph87%30.21 "HgN/A
2:50 pm45 °FPassing clouds.2 mph87%30.21 "HgN/A
2:20 pm45 °FPassing clouds.6 mph87%30.21 "HgN/A
1:50 pm46 °FPassing clouds.8 mph87%30.21 "Hg5 mi
1:20 pm46 °FPassing clouds.3 mph93%30.21 "Hg5 mi
12:50 pm46 °FDrizzle. Fog.7 mph93%30.21 "Hg2 mi
12:20 pm46 °FDrizzle. Fog.7 mph93%30.21 "Hg2 mi
11:50 am46 °FDrizzle. Fog.9 mph93%30.21 "Hg1 mi
11:20 am46 °FDrizzle. Fog.6 mph93%30.21 "Hg1 mi
10:50 am46 °FDrizzle. Fog.7 mph93%30.21 "Hg1 mi
10:20 am46 °FPassing clouds.8 mph93%30.21 "Hg4 mi
9:50 am46 °FDrizzle. Fog.8 mph93%30.21 "Hg3 mi
9:20 am45 °FPartly cloudy.9 mph100%30.21 "Hg4 mi
8:50 am45 °FPassing clouds.8 mph93%30.21 "Hg4 mi
8:20 am45 °FDrizzle. Fog.9 mph93%30.18 "Hg3 mi
7:50 am45 °FDrizzle. Fog.7 mph93%30.18 "Hg3 mi
Weather by CustomWeather, © 2016

See weather overviewHow to use our weather pages